Regional Weather Roundup
Issued by NWS

Home | Current Version | Previous Version | Text Only | Print | Product List | Glossary Off
Versions: 1 2 3 4 5 6 7 8 9 10 11 12 13 14 15 16 17 18 19 20 21 22 23 24 25 26 27 28 29 30 31 32 33 34 35 36 37 38 39 40 41 42 43 44 45 46 47 48 49 50

000
ASUS44 KMEG 261600
RWRTN
TENNESSEE HOURLY STATE WEATHER ROUNDUP
NATIONAL WEATHER SERVICE MEMPHIS TN
1100 AM CDT THU MAY 26 2016

TNZ002-004-019-021-049-052-054-088>092-261700-
WEST TENNESSEE

CITY           SKY/WX    TMP DP  RH WIND       PRES   REMARKS
MEMPHIS INTL   CLOUDY    83  71  67 SW10      30.07S
NWS MEMPHIS      N/A     81 N/A N/A MISG        N/A
JACKSON        MOSUNNY   83  72  69 SW9       30.08F
DYERSBURG      PTSUNNY   82  73  74 SW8       30.05F
UNION CITY     MOSUNNY   81  73  78 SW9       30.05F
PARIS          MOSUNNY   81  72  74 SW10      30.09R
LEXINGTON      PTSUNNY   82  73  74 SW7       30.09S
$$

TNZ008-025-027-028-033-062-065-066-261700-
NORTH MIDDLE TENNESSEE

CITY           SKY/WX    TMP DP  RH WIND       PRES   REMARKS
NASHVILLE      PTSUNNY   83  65  54 S12       30.12S
CLARKSVILLE    MOSUNNY   81  72  74 SW9       30.08S
COOKEVILLE     MOSUNNY   81  66  61 SW10      30.16S
CROSSVILLE     MOSUNNY   77  64  64 MISG      30.22S
$$

TNZ061-075-076-078-094-096-097-261700-
SOUTH MIDDLE TENNESSEE

CITY           SKY/WX    TMP DP  RH WIND       PRES   REMARKS
TULLAHOMA      PTSUNNY   81  61  50 SW12      30.18S
WINCHESTER     SUNNY     82  63  51 W7        30.17F
MCMINNVILLE    PTSUNNY   81  64  57 S9        30.17S
COLUMBIA       SUNNY     84  73  70 S13       30.11S HX  91
SHELBYVILLE    MOSUNNY   88  63  42 S13       30.15S
$$

TNZ017-018-042-046-047-261700-
NORTHEAST TENNESSEE

CITY           SKY/WX    TMP DP  RH WIND       PRES   REMARKS
TRI CITIES     CLOUDY    73  61  65 SW7       30.24R
$$

TNZ012-013-036-069-073-074-261700-
CENTRAL EAST TENNESSEE

CITY           SKY/WX    TMP DP  RH WIND       PRES   REMARKS
KNOXVILLE      CLOUDY    69  64  84 CALM      30.21R
OAK RIDGE      CLOUDY    73  64  73 CALM      30.22R
GATLINBURG     MOSUNNY   68  63  83 CALM      30.22S
$$

TNZ083-085-099-261700-
SOUTHEAST TENNESSEE

CITY           SKY/WX    TMP DP  RH WIND       PRES   REMARKS
CHATTANOOGA    MOSUNNY   84  61  45 CALM      30.18S
$$

SKY/WX REPORTED AS FAIR MEANS FEW OR NO CLOUDS BELOW
12 THOUSAND FEET.





USA.gov is the U.S. government's official web portal to all federal, state and local government web resources and services.